{"data":{"norad_id":46914,"intl_designator":"2020-081K","name":"KSM1-B","alt_names":[],"object_type":"PAYLOAD","status":"ACTIVE","operator":null,"country":"LUXE","launch_date":"2020-11-07","launch_site_code":"SRILR","launch_vehicle":null,"mission":null,"orbit_class":"UNKNOWN","rcs_meters":null,"size_class":null,"mass_kg":null,"dimensions":null,"purposes":[],"wikipedia_slug":null,"has_3d_model":false,"image_url":null,"decayed_at":null,"tle_current":{"epoch":"2026-05-25T05:44:52.261728Z","epoch_age_seconds":64911,"freshness":"FRESH","line1":"1 46914U 20081K   26145.23949377  .00006651  00000+0  27071-3 0  9994","line2":"2 46914  36.9013 209.6937 0004376  87.9641 272.1608 15.24157335308686","mean_motion":15.24157335,"eccentricity":0.0004376,"inclination_deg":36.9013,"raan_deg":209.6937,"arg_perigee_deg":87.9641,"mean_anomaly_deg":272.1608,"bstar":0.00027071,"rev_number":30868,"period_min":94.478435193831,"perigee_km":490.31001212477,"apogee_km":496.3239086309,"semimajor_km":6871.4539603778,"source":"CELESTRAK","updated_at":"2026-05-25T13:37:56.391179Z"}}}